Location: Owatonna
(44.0840°N, 93.2260°W)
Time: 04:21:24
(UTC-06:00)

Tiangong 1 - Visible Passes

Search period start: 05 March 2015 00:00
Search period end: 15 March 2015 01:00
Orbit: 347 x 360 km, 42.8° (Epoch: 05 March)

Date Brightness Start Highest point End Pass type
(mag) Time Alt. Az. Time Alt. Az. Time Alt. Az.
05 Mar 2.6 04:57:51 26° SSE 04:57:51 26° SSE 05:00:21 10° E visible
06 Mar 1.5 05:23:11 31° SW 05:24:14 48° SSE 05:27:05 10° E visible
07 Mar 4.0 04:16:48 14° ESE 04:16:48 14° ESE 04:17:25 10° E visible
07 Mar 1.0 05:48:22 16° WSW 05:50:36 67° S 05:53:31 10° E visible
08 Mar 2.3 05:41:50 36° ESE 05:41:50 36° ESE 05:43:51 10° E visible
09 Mar 0.8 06:06:45 59° SW 06:07:06 69° S 06:10:02 10° E visible
10 Mar 4.4 05:00:00 11° E 05:00:00 11° E 05:00:08 10° E visible
10 Mar 1.0 06:31:33 23° W 06:33:09 60° S 06:36:03 10° ESE visible
11 Mar 3.1 05:24:43 24° ESE 05:24:43 24° ESE 05:26:05 10° E visible
11 Mar 1.7 06:56:15 10° W 06:59:00 37° SSW 07:01:45 10° SE visible
12 Mar 1.4 05:49:21 49° SSE 05:49:21 49° SSE 05:51:50 10° ESE visible
13 Mar 1.8 06:13:57 30° SW 06:14:33 33° SSW 06:17:14 10° SE visible
14 Mar 4.1 05:06:59 11° ESE 05:06:59 11° ESE 05:07:09 10° ESE visible
14 Mar 2.8 06:38:31 13° WSW 06:39:53 16° SSW 06:41:50 10° SSE visible
